Robstown, TX

6:28 AM CST on January 19, 2017 (GMT -0600)
Robstown

Weather History for KRBO - January, 2012

Change the Weather History Date:

Saturday, January 28, 2012

  Actual Average (KCRP) Record (KCRP)
Temperature  
Mean Temperature 63 °F -  
Max Temperature 72 °F 66 °F 83 °F (1977)
Min Temperature 54 °F 47 °F 25 °F (1948)
Degree Days  
Heating Degree Days 2    
Growing Degree Days 13 (Base 50)    
Moisture  
Dew Point 46 °F    
Average Humidity 61    
Maximum Humidity 100    
Minimum Humidity 29    
Precipitation  
Precipitation 0.00 in - - ()
Sea Level Pressure  
Sea Level Pressure 30.24 in    
Wind  
Wind Speed 9 mph (NE)    
Max Wind Speed 18 mph    
Max Gust Speed 28 mph    
Visibility 10 miles    
Events      
Averages and records for this station are not official NWS values.
T = Trace of Precipitation, MM = Missing Value Source: NWS Daily Summary

Daily Weather History Graph

Daily Weather History Graph

Search for Another Location

Airport or City:

Trip Planner

Search our weather history database for the weather conditions in past years. The results will help you decide how hot, cold, wet, or windy it might be!

Date:

Astronomy

Jan. 28, 2012 Rise Set
Actual Time 7:19 AM CST 6:07 PM CST
Civil Twilight 6:54 AM CST 6:32 PM CST
Nautical Twilight 6:26 AM CST 7:00 PM CST
Astronomical Twilight 5:58 AM CST 7:28 PM CST
Moon 10:16 AM CST (1/28) 11:19 PM CST (1/28)
Length of Visible Light 11h 37m
Length of Day
10h 48m
Waxing Crescent, 28% of the Moon is Illuminated
Jan 28
Waxing Crescent
Jan 30
First Quarter
Feb 7
Full
Feb 14
Last Quarter
Feb 21
New

Hourly Weather History & Observations

Time (CST) Temp. Dew Point Humidity Pressure Visibility Wind Dir Wind Speed Gust Speed Precip Events Conditions
12:15 AM 58.3 °F 56.8 °F 95% 30.05 in 10.0 mi SSE 6.9 mph - N/A   Clear
12:35 AM 57.2 °F 54.5 °F 91% 30.05 in 10.0 mi SE 5.8 mph - N/A   Clear
12:55 AM 56.3 °F 56.7 °F 100% 30.04 in 10.0 mi SSE 6.9 mph - N/A   Clear
1:15 AM - - N/A% 30.05 in 10.0 mi Calm Calm - N/A   Clear
1:35 AM 55.8 °F 55.9 °F 100% 30.06 in 10.0 mi Calm Calm - N/A   Clear
2:15 AM 54.0 °F 54.3 °F 100% 30.08 in 10.0 mi East 4.6 mph - N/A   Clear
2:35 AM 54.1 °F - N/A% 30.08 in 10.0 mi ENE 3.5 mph - N/A   Clear
2:55 AM 56.5 °F - N/A% 30.09 in 10.0 mi East 4.6 mph - N/A   Clear
3:15 AM 57.4 °F 57.4 °F 100% 30.09 in 10.0 mi East 5.8 mph - N/A   Clear
3:35 AM 55.2 °F 55.2 °F 100% 30.09 in 10.0 mi East 5.8 mph - N/A   Clear
4:15 AM 55.9 °F 55.9 °F 100% 30.10 in 10.0 mi East 5.8 mph - N/A   Clear
4:35 AM 56.5 °F 56.7 °F 100% 30.10 in 10.0 mi East 6.9 mph - N/A   Clear
4:55 AM 56.8 °F 57.0 °F 100% 30.11 in 10.0 mi ENE 4.6 mph - N/A   Clear
5:15 AM 56.7 °F 57.0 °F 100% 30.11 in 10.0 mi ENE 5.8 mph - N/A   Clear
5:35 AM 56.8 °F 57.0 °F 100% 30.14 in 10.0 mi North 12.7 mph 20.7 mph N/A   Clear
6:15 AM 55.9 °F 56.1 °F 100% 30.18 in 10.0 mi NNE 10.4 mph - N/A   Clear
6:35 AM 56.5 °F 56.7 °F 100% 30.19 in 10.0 mi NNE 11.5 mph - N/A   Clear
6:55 AM 57.4 °F 57.6 °F 100% 30.20 in 10.0 mi NNE 10.4 mph 17.3 mph N/A   Clear
7:15 AM 58.1 °F 58.1 °F 100% 30.20 in 10.0 mi NE 13.8 mph 18.4 mph N/A   Clear
7:35 AM 58.1 °F 58.1 °F 100% 30.23 in 10.0 mi NNE 12.7 mph 18.4 mph N/A   Clear
7:55 AM 58.1 °F 58.1 °F 100% 30.24 in 10.0 mi NNE 13.8 mph - N/A   Clear
8:35 AM 59.0 °F 57.4 °F 94% 30.27 in 10.0 mi NNE 18.4 mph 25.3 mph N/A   Overcast
8:55 AM 59.0 °F 50.9 °F 74% 30.28 in 10.0 mi NNE 16.1 mph 23.0 mph N/A   Mostly Cloudy
9:15 AM 59.0 °F 48.2 °F 67% 30.29 in 10.0 mi NNE 16.1 mph 24.2 mph N/A   Mostly Cloudy
9:35 AM 59.5 °F 46.9 °F 63% 30.30 in 10.0 mi NNE 16.1 mph 25.3 mph N/A   Scattered Clouds
9:55 AM 61.0 °F 46.8 °F 59% 30.31 in 10.0 mi NNE 18.4 mph 23.0 mph N/A   Scattered Clouds
10:15 AM 62.2 °F 46.0 °F 55% 30.32 in 10.0 mi North 17.3 mph 23.0 mph N/A   Clear
10:35 AM 63.0 °F 44.8 °F 51% 30.32 in 10.0 mi NNE 15.0 mph 26.5 mph N/A   Clear
10:55 AM 63.5 °F 44.2 °F 49% 30.33 in 10.0 mi NNE 16.1 mph 24.2 mph N/A   Clear
11:15 AM 64.2 °F 43.5 °F 47% 30.34 in 10.0 mi NNE 12.7 mph 18.4 mph N/A   Clear
11:35 AM 65.3 °F 43.3 °F 45% 30.34 in 10.0 mi NNE 17.3 mph 24.2 mph N/A   Clear
11:55 AM 65.7 °F 43.2 °F 44% 30.33 in 10.0 mi NE 18.4 mph 23.0 mph N/A   Clear
12:15 PM 66.4 °F 42.8 °F 42% 30.33 in 10.0 mi NNE 13.8 mph 23.0 mph N/A   Scattered Clouds
12:35 PM 66.9 °F 42.3 °F 41% 30.32 in 10.0 mi NNE 17.3 mph 26.5 mph N/A   Scattered Clouds
1:15 PM 68.2 °F 40.8 °F 37% 30.30 in 10.0 mi NNE 15.0 mph 27.6 mph N/A   Clear
1:35 PM 69.1 °F 41.2 °F 36% 30.30 in 10.0 mi NNE 12.7 mph 20.7 mph N/A   Clear
1:55 PM 69.3 °F 40.6 °F 35% 30.29 in 10.0 mi NNE 11.5 mph 18.4 mph N/A   Clear
2:15 PM 69.8 °F 40.5 °F 34% 30.28 in 10.0 mi NNE 10.4 mph 18.4 mph N/A   Scattered Clouds
2:35 PM 70.5 °F 40.1 °F 33% 30.28 in 10.0 mi NE 9.2 mph 19.6 mph N/A   Mostly Cloudy
2:55 PM 70.3 °F 39.9 °F 33% 30.28 in 10.0 mi NNE 13.8 mph 24.2 mph N/A   Mostly Cloudy
3:15 PM 72.3 °F 39.7 °F 31% 30.28 in 10.0 mi NE 9.2 mph 16.1 mph N/A   Scattered Clouds
3:35 PM 71.8 °F 39.2 °F 31% 30.28 in 10.0 mi ENE 10.4 mph - N/A   Scattered Clouds
3:55 PM 71.6 °F 38.8 °F 30% 30.28 in 10.0 mi NE 13.8 mph 18.4 mph N/A   Scattered Clouds
4:15 PM 71.6 °F 37.8 °F 29% 30.28 in 10.0 mi NE 16.1 mph 20.7 mph N/A   Clear
4:35 PM 71.2 °F 37.8 °F 29% 30.29 in 10.0 mi NNE 11.5 mph 16.1 mph N/A   Clear
4:55 PM 70.5 °F 37.8 °F 30% 30.29 in 10.0 mi ENE 12.7 mph 18.4 mph N/A   Clear
5:15 PM 69.6 °F 37.4 °F 31% 30.29 in 10.0 mi ENE 15.0 mph - N/A   Clear
5:35 PM 68.9 °F 36.5 °F 30% 30.29 in 10.0 mi NE 11.5 mph 19.6 mph N/A   Clear
5:55 PM 67.6 °F 36.1 °F 31% 30.30 in 10.0 mi ENE 12.7 mph - N/A   Clear
6:15 PM 66.2 °F 36.1 °F 33% 30.31 in 10.0 mi ENE 11.5 mph 17.3 mph N/A   Clear
6:35 PM 64.9 °F 35.8 °F 34% 30.32 in 10.0 mi NE 9.2 mph - N/A   Clear
6:55 PM 64.0 °F 35.6 °F 35% 30.34 in 10.0 mi NE 8.1 mph - N/A   Clear
7:15 PM 63.1 °F 34.5 °F 34% 30.35 in 10.0 mi NE 9.2 mph - N/A   Clear
7:35 PM 62.1 °F 32.9 °F 34% 30.35 in 10.0 mi NE 10.4 mph - N/A   Clear
7:55 PM 61.3 °F 32.0 °F 33% 30.36 in 10.0 mi NE 11.5 mph - N/A   Clear
8:15 PM 60.6 °F 31.8 °F 34% 30.37 in 10.0 mi NE 9.2 mph - N/A   Clear
8:35 PM 59.7 °F 31.6 °F 35% 30.38 in 10.0 mi NNE 8.1 mph - N/A   Clear
8:55 PM 58.8 °F 32.0 °F 36% 30.38 in 10.0 mi NNE 6.9 mph - N/A   Clear
9:15 PM 57.9 °F 32.0 °F 37% 30.39 in 10.0 mi NNE 6.9 mph - N/A   Clear
9:35 PM 57.0 °F 32.0 °F 39% 30.39 in 10.0 mi NNE 5.8 mph - N/A   Clear
9:55 PM 55.9 °F 32.0 °F 40% 30.40 in 10.0 mi NNE 4.6 mph - N/A   Clear
10:15 PM 54.3 °F 32.2 °F 43% 30.40 in 10.0 mi NNE 5.8 mph - N/A   Clear
10:35 PM 52.3 °F 31.8 °F 46% 30.40 in 10.0 mi North 5.8 mph - N/A   Clear
10:55 PM 50.4 °F 30.6 °F 47% 30.40 in 10.0 mi North 5.8 mph - N/A   Clear
11:15 PM 49.1 °F 30.2 °F 48% 30.41 in 10.0 mi NNW 5.8 mph - N/A   Clear
11:35 PM 47.8 °F 30.0 °F 50% 30.40 in 10.0 mi North 5.8 mph - N/A   Clear
11:55 PM 47.5 °F 30.6 °F 52% 30.40 in 10.0 mi North 6.9 mph - N/A   Clear